Location: Unspecified
(0.0000°N, 0.0000°E)
Time: 15:19:33
(UTC+01:00)

Cosmos 1953 Rocket - Visible Passes

Search period start: 27 November 2014 00:00
Search period end: 07 December 2014 00:00
Orbit: 607 x 636 km, 82.5° (Epoch: 26 November)

Date Brightness Start Highest point End Pass type
(mag) Time Alt. Az. Time Alt. Az. Time Alt. Az.
27 Nov 5.4 19:11:08 10° ESE 19:13:06 13° E 19:15:04 10° ENE visible
27 Nov 5.8 20:47:18 10° SW 20:50:43 23° W 20:53:24 13° NW visible
28 Nov 4.4 19:27:16 10° SSE 19:31:04 30° E 19:34:51 10° NNE visible
29 Nov 3.4 19:44:41 10° S 19:49:01 73° E 19:53:21 10° N visible
30 Nov 4.6 20:02:49 10° SSW 20:06:58 45° W 20:11:08 10° NNW visible
01 Dec 6.1 20:21:47 10° SW 20:24:56 20° W 20:28:05 10° NW visible
03 Dec 3.5 19:18:51 10° S 19:23:13 86° E 19:27:36 10° N visible
04 Dec 5.1 19:37:07 10° SSW 19:41:10 38° W 19:45:15 10° NNW visible
05 Dec 6.8 06:10:57 10° ENE 06:12:35 12° E 06:14:13 10° ESE visible
05 Dec 6.4 19:56:19 10° SW 19:59:08 17° W 20:01:57 10° NW visible
